This is the latest recevied weather packets stored in our database for station/object KA1JKB. If no packets are shown the sender has not sent any weather packets the latest 10 day(s).
| Time | Temp. | Humidity | Pressure | Rain* | Wind** | Luminosity | Snow |
|---|---|---|---|---|---|---|---|
| 1777830295 | 16.67° C | 43% | 1009.4 hPa | 0 mm | - | 744 W/m² | - |
| 1777829990 | 16.67° C | 41% | 1009.3 hPa | 0 mm | - | 749 W/m² | - |
| 1777829686 | 16.11° C | 45% | 1009.5 hPa | 0 mm | - | 681 W/m² | - |
| 1777829383 | 16.11° C | 43% | 1009.4 hPa | 0 mm | - | 421 W/m² | - |
| 1777829080 | 16.67° C | 44% | 1009.4 hPa | 0 mm | - | 764 W/m² | - |
| 1777828777 | 15.56° C | 44% | 1009.6 hPa | 0 mm | - | 763 W/m² | - |
| 1777828473 | 16.11° C | 43% | 1009.5 hPa | 0 mm | - | 275 W/m² | - |
| 1777828171 | 16.67° C | 46% | 1009.6 hPa | 0 mm | - | 815 W/m² | - |
| 1777827867 | 15.56° C | 44% | 1009.9 hPa | 0 mm | - | 776 W/m² | - |
| 1777827564 | 15° C | 48% | 1009.9 hPa | 0 mm | - | 473 W/m² | - |
| 1777827262 | 14.44° C | 46% | 1009.9 hPa | 0 mm | - | 420 W/m² | - |
| 1777826957 | 14.44° C | 48% | 1010.1 hPa | 0 mm | - | 400 W/m² | - |
| 1777826655 | 14.44° C | 47% | 1010.4 hPa | 0 mm | - | 451 W/m² | - |
| 1777826351 | 14.44° C | 47% | 1010.3 hPa | 0 mm | - | 401 W/m² | - |
| 1777826049 | 14.44° C | 48% | 1010.5 hPa | 0 mm | - | 475 W/m² | - |
| 1777825745 | 14.44° C | 47% | 1010.5 hPa | 0 mm | - | 565 W/m² | - |
| 1777825443 | 14.44° C | 47% | 1010.6 hPa | 0 mm | - | 465 W/m² | - |
| 1777825140 | 14.44° C | 49% | 1010.6 hPa | 0 mm | - | 739 W/m² | - |
| 1777824836 | 13.89° C | 48% | 1010.6 hPa | 0 mm | - | 764 W/m² | - |
| 1777824533 | 13.89° C | 48% | 1010.8 hPa | 0 mm | - | 413 W/m² | - |
| 1777824229 | 13.33° C | 51% | 1010.5 hPa | 0 mm | - | 566 W/m² | - |
| 1777823925 | 13.33° C | 48% | 1010.6 hPa | 0 mm | - | 505 W/m² | - |
| 1777823623 | 12.78° C | 51% | 1011 hPa | 0 mm | - | 558 W/m² | - |
| 1777823319 | 12.22° C | 51% | 1010.8 hPa | 0 mm | - | 415 W/m² | - |
| 1777823017 | 11.67° C | 53% | 1010.9 hPa | 0 mm | - | 322 W/m² | - |
* Rain latest hour (hover to see other rain measurements)
** Current wind speed in m/s (hover to see current wind gust speed)